Weather History for Lewiston, ID

Change the Weather History Date:

Tuesday, June 3, 2014

  Actual Average Record
Temperature  
Mean Temperature 71 °F 63 °F  
Max Temperature 84 °F 75 °F 101 °F (2007)
Min Temperature 58 °F 51 °F 40 °F (1918)
Degree Days  
Heating Degree Days 0 4  
Month to date heating degree days 0 12  
Since 1 June heating degree days 0 12  
Since 1 July heating degree days 5289 5109  
Cooling Degree Days 6 2  
Month to date cooling degree days 17 6  
Year to date cooling degree days 45 38  
Since 1 June cooling degree days 17 6  
Growing Degree Days 20 (Base 50)    
Moisture  
Dew Point 43 °F    
Average Humidity 40    
Maximum Humidity 67    
Minimum Humidity 12    
Precipitation  
Precipitation T in 0.05 in 0.45 in (1958)
Month to date precipitation 0.15 0.16  
Year to date precipitation 5.44 6.10  
Snow  
Snow 0.00 in 0.00 in 0.00 in (1995)
Month to date snowfall 0.0 0.0  
Since 1 June snowfall 0.0 0.0  
Since 1 July snowfall 16.5 10.5  
Snow Depth 0.00 in    
Sea Level Pressure  
Sea Level Pressure 29.80 in    
Wind  
Wind Speed 5 mph (ESE)    
Max Wind Speed 18 mph    
Max Gust Speed 24 mph    
Visibility 10 miles    
Events Rain    
T = Trace of Precipitation, MM = Missing Value Source: NWS Daily Summary

Daily Weather History Graph

Daily Weather History Graph

Search for Another Location

Airport:

Trip Planner

Search our weather history database for the weather conditions in past years. The results will help you decide how hot, cold, wet, or windy it might be!

Date:

Astronomy

Jun. 03, 2014 Rise Set
Actual Time 4:58 AM PDT 8:34 PM PDT
Civil Twilight 4:20 AM PDT 9:12 PM PDT
Nautical Twilight 3:29 AM PDT 10:03 PM PDT
Astronomical Twilight 2:21 AM PDT 11:12 PM PDT
Moon 10:38 AM PDT (6/3) No Moon Set
Length of Visible Light 16h 52m
Length of Day
15h 36m
Waxing Crescent, 31% of the Moon is Illuminated
Jun 3
Waxing Crescent
Jun 5
First Quarter
Jun 12
Full
Jun 19
Last Quarter
Jun 27
New

Hourly Weather History & Observations

Time (PDT) Temp. Dew Point Humidity Pressure Visibility Wind Dir Wind Speed Gust Speed Precip Events Conditions
12:56 AM 64.0 °F 51.1 °F 63% 29.72 in 10.0 mi Calm Calm - N/A   Clear
1:56 AM 64.0 °F 50.0 °F 60% 29.71 in 10.0 mi Calm Calm - N/A   Partly Cloudy
2:56 AM 64.0 °F 48.9 °F 58% 29.73 in 10.0 mi ESE 8.1 mph - N/A   Mostly Cloudy
3:56 AM 62.1 °F 48.0 °F 60% 29.73 in 10.0 mi SE 5.8 mph - N/A   Clear
4:56 AM 60.1 °F 48.9 °F 67% 29.74 in 10.0 mi WNW 4.6 mph - 0.00 in   Partly Cloudy
5:56 AM 59.0 °F 48.9 °F 69% 29.77 in 10.0 mi Calm Calm - N/A   Clear
6:56 AM 62.1 °F 48.0 °F 60% 29.81 in 10.0 mi South 3.5 mph - N/A   Clear
7:56 AM 66.0 °F 46.9 °F 50% 29.82 in 10.0 mi SE 3.5 mph - N/A   Scattered Clouds
8:56 AM 68.0 °F 46.9 °F 47% 29.83 in 10.0 mi Calm Calm - N/A   Partly Cloudy
9:56 AM 71.1 °F 46.9 °F 42% 29.83 in 10.0 mi East 5.8 mph - N/A   Clear
10:56 AM 75.0 °F 46.9 °F 37% 29.83 in 10.0 mi East 4.6 mph - N/A   Clear
11:56 AM 73.9 °F 44.1 °F 34% 29.83 in 10.0 mi Calm Calm - N/A   Clear
12:56 PM 73.0 °F 46.9 °F 39% 29.82 in 10.0 mi SE 5.8 mph - N/A   Clear
1:56 PM 72.0 °F 51.1 °F 48% 29.81 in 10.0 mi North 6.9 mph - 0.00 in Rain Light Rain
2:56 PM 78.1 °F 44.1 °F 30% 29.79 in 10.0 mi Variable 4.6 mph - 0.00 in   Clear
3:56 PM 80.1 °F 41.0 °F 25% 29.78 in 10.0 mi SE 5.8 mph - N/A   Clear
4:56 PM 82.9 °F 39.0 °F 21% 29.78 in 10.0 mi Variable 3.5 mph - N/A   Clear
5:56 PM 82.0 °F 30.0 °F 15% 29.77 in 10.0 mi WNW 9.2 mph - N/A   Clear
6:56 PM 80.6 °F 23.0 °F 12% 29.81 in 10.0 mi NW 12.7 mph - N/A   Clear
7:56 PM 78.8 °F 24.8 °F 14% 29.82 in 10.0 mi WNW 13.8 mph - N/A   Partly Cloudy
8:56 PM 73.9 °F 28.0 °F 18% 29.82 in 10.0 mi Calm Calm - N/A   Clear
9:56 PM 68.0 °F 41.0 °F 37% 29.86 in 10.0 mi East 9.2 mph - N/A   Clear
10:56 PM 66.0 °F 39.9 °F 38% 29.87 in 10.0 mi East 5.8 mph - N/A   Clear
11:56 PM 61.0 °F 42.1 °F 50% 29.89 in 10.0 mi SSE 5.8 mph - N/A   Clear